Overview Statistics Trail Chart Weather Telemetry Raw packets
 

This is the latest recevied weather packets stored in our database for station/object N7WGJ. If no packets are shown the sender has not sent any weather packets the latest 10 day(s).

<< 24 25 26 27 28 29 30 >>
Time Temp. Humidity Pressure Rain* Wind** Luminosity Snow
1788319287 16.11° C 92% 1010.6 hPa 0 mm - - -
1788318692 16.11° C 92% 1010.6 hPa 0.25 mm - - -
1788318114 16.11° C 92% 1010.5 hPa 0.25 mm - - -
1788317485 16.11° C 92% 1010.4 hPa 0.51 mm - - -
1788316890 16.11° C 92% 1010.4 hPa 0.51 mm - - -
1788316289 16.11° C 92% 1010.4 hPa 0.51 mm - - -
1788315693 16.11° C 91% 1010.5 hPa 0.51 mm - - -
1788315090 16.67° C 90% 1010.5 hPa 0.25 mm - - -
1788314515 16.67° C 87% 1010.5 hPa 0.25 mm - - -
1788313909 17.22° C 84% 1010.5 hPa 0 mm - - -
1788313304 17.78° C 83% 1010.5 hPa 0 mm - - -
1788312689 18.33° C 82% 1010.3 hPa 0 mm - - -
1788312091 18.33° C 81% 1010.2 hPa 0 mm - - -
1788311491 17.78° C 83% 1010.2 hPa 0 mm - - -
1788310911 17.78° C 83% 1010.3 hPa 0 mm - - -
1788310304 17.78° C 83% 1010.5 hPa 0 mm - - -
1788309702 18.33° C 81% 1010.4 hPa 0 mm - - -
1788309100 18.33° C 79% 1010.4 hPa 0 mm - - -
1788308501 18.33° C 80% 1010.5 hPa 0 mm - - -
1788307900 17.78° C 82% 1010.4 hPa 0 mm - - -
1788307301 17.78° C 83% 1010.4 hPa 0 mm - - -
1788306685 17.22° C 84% 1010.5 hPa 0 mm - - -
1788306082 16.67° C 85% 1010.5 hPa 0 mm - - -
1788305482 16.67° C 86% 1010.5 hPa 0 mm - - -
1788304887 17.22° C 85% 1010.6 hPa 0 mm - - -

* Rain latest hour (hover to see other rain measurements)
** Current wind speed in m/s (hover to see current wind gust speed)